7M1JBF-13 Weather Reports


time (UTC)temp
C
wind
direction
speed
KPH
gust
KPH
rain 1hr
cm
rain 24hr
cm
rain mn
cm
humidity
%
barometer
mb
20260505093334 16 296 4.8 11.3 0.00 0.30 0.00 65 1021.3
20260505092326 16 298 6.4 11.3 0.00 0.30 0.00 66 1021.2
20260505091343 16 297 6.4 14.5 0.00 0.30 0.00 64 1021.2
20260505090341 16 305 6.4 14.5 0.00 0.30 0.00 63 1021.1
20260505085331 17 301 9.7 17.7 0.00 0.30 0.00 62 1020.9
20260505084334 17 306 6.4 19.3 0.00 0.30 0.00 61 1020.8
20260505083348 17 294 6.4 14.5 0.00 0.30 0.00 64 1020.8
20260505082330 17 297 3.2 17.7 0.00 0.30 0.00 61 1020.8
20260505081353 17 306 8.0 19.3 0.00 0.30 0.00 61 1020.7
20260505080326 18 296 9.7 17.7 0.00 0.99 0.00 59 1020.8
20260505075350 18 272 8.0 17.7 0.00 0.99 0.00 59 1020.5
20260505074348 19 293 1.6 11.3 0.00 0.99 0.00 58 1020.4
20260505073403 19 319 0.0 6.4 0.00 0.99 0.00 60 1020.3
20260505072348 20 198 1.6 9.7 0.00 0.99 0.00 59 1020.1
20260505071337 19 298 1.6 11.3 0.00 0.99 0.00 55 1020.0
20260505070334 19 312 4.8 14.5 0.00 3.99 0.00 56 1020.0
20260505065341 18 303 4.8 14.5 0.00 3.99 0.00 55 1020.0
20260505064339 19 304 6.4 16.1 0.00 3.99 0.00 55 1019.9
20260505063352 19 342 1.6 8.0 0.00 3.99 0.00 57 1019.9
20260505062328 20 329 3.2 9.7 0.00 3.99 0.00 54 1020.0
20260505061325 20 279 1.6 6.4 0.00 3.99 0.00 53 1019.9
20260505060327 19 297 1.6 17.7 0.00 3.99 0.00 55 1019.8
20260505055322 20 277 4.8 11.3 0.00 3.99 0.00 54 1019.8
20260505054352 19 286 1.6 14.5 0.00 3.99 0.00 52 1019.7
20260505053331 20 276 1.6 12.9 0.00 3.99 0.00 52 1019.8
20260505052327 20 320 0.0 9.7 0.00 3.99 0.00 51 1019.8
20260505051347 20 293 1.6 6.4 0.00 3.99 0.00 50 1019.9
20260505050333 19 272 8.0 14.5 0.00 3.99 0.00 49 1019.9
20260505041353 19 349 1.6 11.3 0.00 3.99 0.00 48 1019.8
20260505040341 19 317 1.6 14.5 0.00 3.99 0.00 52 1020.2
20260505035400 19 350 3.2 9.7 0.00 3.99 0.00 53 1020.2
20260505034348 18 143 4.8 11.3 0.00 3.99 0.00 50 1020.0
20260505033346 18 284 3.2 14.5 0.00 3.99 0.00 51 1020.1
20260505032347 19 306 3.2 14.5 0.00 3.99 0.00 53 1020.0
20260505031323 19 1 3.2 11.3 0.00 3.99 0.00 48 1020.2
20260505030328 19 331 4.8 12.9 0.00 3.99 0.00 49 1020.2
20260505025351 19 283 1.6 8.0 0.00 3.99 0.00 51 1020.0
20260505024337 18 221 4.8 16.1 0.00 3.99 0.00 51 1020.2
20260505023354 18 214 3.2 12.9 0.00 3.99 0.00 52 1020.3
20260505022329 19 295 3.2 8.0 0.00 3.99 0.00 49 1020.1
20260505021331 19 288 1.6 9.7 0.00 3.99 0.00 52 1020.2
20260505020325 18 286 3.2 11.3 0.00 4.09 0.00 48 1020.1
20260505015349 18 126 0.0 8.0 0.00 4.09 0.00 51 1020.2
20260505014344 18 284 1.6 8.0 0.00 4.09 0.00 55 1020.3
20260505013337 17 331 3.2 14.5 0.00 4.09 0.00 56 1020.1
20260505012341 17 272 3.2 11.3 0.00 4.09 0.00 51 1020.1
20260505011332 18 286 3.2 8.0 0.00 4.09 0.00 56 1019.8
20260505010327 17 308 3.2 6.4 0.00 5.51 0.00 50 1019.9
20260505005350 18 273 3.2 11.3 0.00 5.51 0.00 55 1019.8
20260505004346 18 321 1.6 4.8 0.00 5.51 0.00 54 1019.8
20260505003336 18 268 1.6 9.7 0.00 5.51 0.00 56 1019.6
20260505002338 18 313 1.6 8.0 0.00 5.51 0.00 51 1019.7
20260505001333 18 302 1.6 4.8 0.00 5.51 0.00 49 1019.6
20260505000327 18 289 3.2 9.7 0.00 5.89 0.00 49 1019.4
20260504235332 18 304 0.0 6.4 0.00 5.89 0.00 59 1019.3
20260504234330 17 291 0.0 9.7 0.00 5.89 0.00 56 1019.4
20260504233333 17 258 0.0 4.8 0.00 5.89 0.00 57 1019.4
20260504232329 17 251 1.6 6.4 0.00 5.89 0.00 59 1019.1
20260504231413 16 241 0.0 8.0 0.00 5.89 0.00 53 1019.1
20260504230326 16 295 1.6 9.7 0.00 6.30 0.00 54 1019.0
20260504225349 16 344 1.6 6.4 0.00 6.30 0.00 54 1019.0
20260504224342 15 251 0.0 4.8 0.00 6.30 0.00 60 1018.8
20260504223338 15 298 0.0 6.4 0.00 6.30 0.00 65 1018.7
20260504222338 14 298 0.0 3.2 0.00 6.30 0.00 62 1018.7
20260504221338 13 251 0.0 1.6 0.00 6.30 0.00 67 1018.5
20260504220342 12 283 0.0 6.4 0.00 7.90 0.00 67 1018.6
20260504215338 11 251 0.0 3.2 0.00 7.90 0.00 69 1018.4
20260504214413 11 268 0.0 4.8 0.00 7.90 0.00 73 1018.1
20260504213323 9 291 0.0 1.6 0.00 7.90 0.00 83 1018.0
20260504212334 8 291 0.0 1.6 0.00 7.90 0.00 88 1018.1
20260504211334 8 291 0.0 1.6 0.00 7.90 0.00 90 1018.0
20260504210343 7 291 0.0 1.6 0.00 8.10 0.00 91 1017.8
20260504205323 7 291 0.0 1.6 0.00 8.10 0.00 92 1017.7
20260504204337 7 291 0.0 0.0 0.00 8.10 0.00 93 1017.5
20260504203339 7 291 0.0 1.6 0.00 8.10 0.00 92 1017.3
20260504202350 6 291 0.0 1.6 0.00 8.10 0.00 92 1017.2
20260504201330 6 291 0.0 1.6 0.00 8.10 0.00 92 1017.0
20260504200330 6 291 0.0 1.6 0.00 8.31 0.00 90 1016.7
20260504195347 6 291 0.0 1.6 0.00 8.31 0.00 91 1016.4
20260504194336 7 291 0.0 1.6 0.00 8.31 0.00 90 1016.1
20260504193333 7 291 0.0 1.6 0.00 8.31 0.00 90 1015.9
20260504192337 7 291 0.0 1.6 0.00 8.31 0.00 89 1015.8
20260504191402 7 291 0.0 1.6 0.00 8.31 0.00 87 1015.6
20260504190339 7 291 0.0 1.6 0.00 8.41 0.00 86 1015.4
20260504185349 8 317 0.0 1.6 0.00 8.41 0.00 84 1015.4
20260504184350 8 320 0.0 1.6 0.00 8.41 0.00 82 1015.3
20260504183330 9 320 0.0 1.6 0.00 8.41 0.00 78 1015.0
20260504182350 10 328 1.6 6.4 0.00 8.41 0.00 74 1014.8
20260504181330 10 302 0.0 3.2 0.00 8.41 0.00 74 1014.4
20260504180337 10 277 0.0 8.0 0.00 8.51 0.00 70 1013.9
20260504175352 10 307 4.8 12.9 0.00 8.51 0.00 67 1013.6
20260504174337 10 350 1.6 11.3 0.00 8.51 0.00 69 1013.6
20260504173331 10 284 1.6 9.7 0.00 8.51 0.00 72 1014.0
20260504172359 10 277 0.0 9.7 0.00 8.51 0.00 71 1014.1
20260504171335 10 129 1.6 4.8 0.00 8.51 0.00 74 1014.0
20260504170330 10 321 0.0 4.8 0.00 8.51 0.00 76 1013.7
20260504160335 10 275 0.0 11.3 0.00 8.51 0.00 77 1012.1
20260504150404 10 292 0.0 3.2 0.00 8.51 1.70 90 1009.3
20260504141327 9 20 1.6 3.2 0.00 8.51 1.70 97 1007.6
20260504140351 10 290 0.0 1.6 0.00 8.51 1.70 97 1007.7
20260504130328 11 291 0.0 3.2 0.00 8.51 1.70 93 1006.1
20260504110351 12 96 0.0 1.6 0.00 8.51 1.70 98 1002.6
20260504100339 13 301 0.0 1.6 0.30 8.51 1.70 98 1001.4